Henderson, NV

7:38 AM PDT on April 29, 2017 (GMT -0700)
Henderson

Weather History for KHND - October, 2012

Change the Weather History Date:

Monday, October 8, 2012

  Actual Average (KLAS) Record (KLAS)
Temperature  
Mean Temperature 74 °F -  
Max Temperature 88 °F 84 °F 98 °F (1964)
Min Temperature 61 °F 57 °F 41 °F (1941)
Cooling Degree Days 10    
Growing Degree Days 24 (Base 50)    
Moisture  
Dew Point 29 °F    
Average Humidity 20    
Maximum Humidity 29    
Minimum Humidity 11    
Precipitation  
Precipitation 0.00 in - - ()
Sea Level Pressure  
Sea Level Pressure 29.79 in    
Wind  
Wind Speed 8 mph (South)    
Max Wind Speed 14 mph    
Max Gust Speed -    
Visibility 10 miles    
Events      
Averages and records for this station are not official NWS values.
T = Trace of Precipitation, MM = Missing Value Source: NWS Daily Summary

Daily Weather History Graph

Daily Weather History Graph

Search for Another Location

Airport or City:

Trip Planner

Search our weather history database for the weather conditions in past years. The results will help you decide how hot, cold, wet, or windy it might be!

Date:

Astronomy

Oct. 08, 2012 Rise Set
Actual Time 6:41 AM PDT 6:13 PM PDT
Civil Twilight 6:16 AM PDT 6:39 PM PDT
Nautical Twilight 5:46 AM PDT 7:08 PM PDT
Astronomical Twilight 5:16 AM PDT 7:38 PM PDT
Moon No Moon Rise 1:54 PM PDT (10/8)
Length of Visible Light 12h 22m
Length of Day
11h 31m
Last Quarter, 45% of the Moon is Illuminated
Oct 8
Last Quarter
Oct 15
New
Oct 21
First Quarter
Oct 29
Full
Nov 6
Last Quarter

Hourly Weather History & Observations

Time (PDT) Temp. Dew Point Humidity Pressure Visibility Wind Dir Wind Speed Gust Speed Precip Events Conditions
12:56 AM 63.9 °F 28.0 °F 26% 29.81 in 10.0 mi South 6.9 mph - N/A   Clear
1:56 AM 63.0 °F 28.0 °F 27% 29.81 in 10.0 mi South 8.1 mph - N/A   Clear
2:56 AM 63.0 °F 28.0 °F 27% 29.80 in 10.0 mi South 10.4 mph - N/A   Clear
3:56 AM 61.9 °F 28.0 °F 28% 29.80 in 10.0 mi South 5.8 mph - N/A   Clear
4:56 AM 61.9 °F 29.1 °F 29% 29.81 in 10.0 mi SSE 8.1 mph - N/A   Clear
5:56 AM 61.9 °F 29.1 °F 29% 29.81 in 10.0 mi South 6.9 mph - N/A   Clear
6:56 AM 61.9 °F 27.1 °F 27% 29.83 in 10.0 mi South 10.4 mph - N/A   Clear
7:56 AM 66.9 °F 29.1 °F 24% 29.85 in 10.0 mi SSW 6.9 mph - N/A   Clear
8:56 AM 70.9 °F 30.0 °F 22% 29.86 in 10.0 mi Calm Calm - N/A   Clear
9:56 AM 77.0 °F 32.0 °F 19% 29.85 in 10.0 mi NE 5.8 mph - N/A   Clear
10:56 AM 79.9 °F 34.0 °F 19% 29.83 in 10.0 mi NE 6.9 mph - N/A   Clear
11:56 AM 82.9 °F 34.0 °F 17% 29.82 in 10.0 mi ENE 6.9 mph - N/A   Clear
1:56 PM 88.9 °F 32.0 °F 13% 29.75 in 10.0 mi SW 13.8 mph - N/A   Clear
2:56 PM 88.9 °F 32.0 °F 13% 29.74 in 10.0 mi WSW 12.7 mph - N/A   Clear
3:56 PM 88.9 °F 29.1 °F 12% 29.73 in 10.0 mi WSW 10.4 mph - N/A   Clear
4:56 PM 88.0 °F 27.1 °F 11% 29.73 in 10.0 mi SW 12.7 mph - N/A   Clear
7:56 PM 77.9 °F 24.1 °F 14% 29.75 in 10.0 mi SSW 10.4 mph - N/A   Clear
8:56 PM 77.0 °F 25.2 °F 15% 29.77 in 10.0 mi South 8.1 mph - N/A   Clear
9:56 PM 77.9 °F 28.0 °F 16% 29.77 in 10.0 mi SE 8.1 mph - N/A   Clear
10:56 PM 75.9 °F 30.0 °F 19% 29.78 in 10.0 mi SSE 9.2 mph - N/A   Clear
11:56 PM 75.9 °F 29.1 °F 18% 29.77 in 10.0 mi SE 8.1 mph - N/A   Clear